RLFL14 (46268 NORAD) Tracking and Keplerian Element Data

This shows tracking and keplerian element data for the satellite.

Feedback or suggestion? Click here.




ElementValue
Catalog46268
NameRLFL14
Epoch Orbit1402
Epoch Day336.92959123
Epoch Year2020
RAAN199.1629
Inclination45.0991
Eccentricity0.001148
Argument of Perigee64.7825
Mean Anonmoly295.4244
Mean Motion15.09695015
Decay Rate1.777E-05
L11 46268U 20060A 20336.92959123 .00001777 00000-0 12376-3 0 9992
L22 46268 45.0991 199.1629 0011480 64.7825 295.4244 15.09695015 14027

Live tracking and technical data element details for RLFL14 (NORAD 46268). RLFL14 can be tracked NOW for your location showing map with azimuth and elevation plus other details from your city location.

Track the satellite on the map from your city or location and see movement details for azimuth, elevation, latitude, longitude, range, height, and movement on the map or in text.







IsCatalogInMostPopularTable: catalog: 46268, numindb: 23
Update: records affected: 1



GetName: 46268 RLFL14

Hit Count: updated at: Wed, 02 Dec 2020 18:31:10 GMT